Location: *
(60.1759°S, 155.0663°W)
Time: 14:56:49
(UTC+00:00)

Cosmos 2369 - Pass Details

Date: 17 September 2019
Orbit: 840 x 856 km, 71.0° (Epoch: 21 October)

Event Time Altitude Azimuth Distance (km) Brightness Sun altitude
Rises 14:23:30 0° 219° (SW) 3,469 6.7 -15.4°
Reaches altitude 10° 14:26:07 10° 227° (SW) 2,525 5.9 -15.1°
Maximum altitude 14:31:24 38° 292° (WNW) 1,309 4.2 -14.5°
Drops below altitude 10° 14:36:38 10° 357° (N) 2,493 5.9 -13.9°
Sets 14:39:13 0° 5° (N) 3,419 6.7 -13.6°
